Chanute, KS

7:35 AM CDT on March 28, 2017 (GMT -0500)
Chanute Martin Johnson

Weather History for KCNU - May, 2013

Change the Weather History Date:

Friday, May 31, 2013

  Actual Average Record
Temperature  
Mean Temperature 76 °F 70 °F  
Max Temperature 86 °F 80 °F 99 °F (1934)
Min Temperature 65 °F 60 °F 42 °F (1930)
Degree Days  
Heating Degree Days 0 1  
Month to date heating degree days 131 76  
Since 1 July heating degree days 4312 4477  
Cooling Degree Days 11 6  
Month to date cooling degree days 108 102  
Year to date cooling degree days 123 133  
Growing Degree Days 26 (Base 50)    
Moisture  
Dew Point 68 °F    
Average Humidity 81    
Maximum Humidity 97    
Minimum Humidity 65    
Precipitation  
Precipitation 0.88 in 0.21 in 4.00 in (1928)
Month to date precipitation 6.54 5.80  
Year to date precipitation 17.72 16.40  
Sea Level Pressure  
Sea Level Pressure 29.70 in    
Wind  
Wind Speed 10 mph (SSE)    
Max Wind Speed 23 mph    
Max Gust Speed 35 mph    
Visibility 8 miles    
Events Rain , Thunderstorm    
T = Trace of Precipitation, MM = Missing Value Source: NWS Daily Summary

Daily Weather History Graph

Daily Weather History Graph

Search for Another Location

Airport or City:

Trip Planner

Search our weather history database for the weather conditions in past years. The results will help you decide how hot, cold, wet, or windy it might be!

Date:

Astronomy

May. 31, 2013 Rise Set
Actual Time 6:02 AM CDT 8:37 PM CDT
Civil Twilight 5:31 AM CDT 9:08 PM CDT
Nautical Twilight 4:53 AM CDT 9:46 PM CDT
Astronomical Twilight 4:11 AM CDT 10:28 PM CDT
Moon 1:18 AM CDT (5/31) 1:12 PM CDT (5/31)
Length of Visible Light 15h 36m
Length of Day
14h 35m
Waning Gibbous, 51% of the Moon is Illuminated
May 31
Waning Gibbous
May 31
Last Quarter
Jun 8
New
Jun 16
First Quarter
Jun 23
Full

Hourly Weather History & Observations

Time (CDT) Temp. Heat Index Dew Point Humidity Pressure Visibility Wind Dir Wind Speed Gust Speed Precip Events Conditions
12:29 AM 66.2 °F - 64.4 °F 94% 29.71 in 10.0 mi SE 3.5 mph - N/A   Mostly Cloudy
12:52 AM 66.9 °F - 64.0 °F 90% 29.68 in 10.0 mi SE 4.6 mph - N/A   Overcast
1:52 AM 66.0 °F - 64.0 °F 93% 29.68 in 10.0 mi East 3.5 mph - N/A   Scattered Clouds
2:52 AM 66.0 °F - 63.0 °F 90% 29.68 in 10.0 mi East 3.5 mph - N/A   Scattered Clouds
3:52 AM 66.0 °F - 63.0 °F 90% 29.66 in 10.0 mi East 5.8 mph - N/A   Overcast
4:04 AM 66.2 °F - 64.4 °F 94% 29.68 in 10.0 mi East 5.8 mph - N/A   Overcast
4:32 AM 66.2 °F - 64.4 °F 94% 29.68 in 10.0 mi Variable 4.6 mph - N/A   Overcast
4:52 AM 70.0 °F - 66.9 °F 90% 29.65 in 10.0 mi SSE 10.4 mph 19.6 mph N/A   Overcast
5:25 AM 69.8 °F - 66.2 °F 88% 29.68 in 10.0 mi SSE 10.4 mph - N/A   Overcast
5:52 AM 70.0 °F - 66.9 °F 90% 29.66 in 10.0 mi South 5.8 mph - N/A   Overcast
6:25 AM 69.8 °F - 68.0 °F 94% 29.68 in 10.0 mi SSE 6.9 mph - N/A   Overcast
6:32 AM 71.6 °F - 68.0 °F 88% 29.68 in 10.0 mi SSE 9.2 mph - N/A   Overcast
6:44 AM 71.6 °F - 69.8 °F 94% 29.69 in 10.0 mi South 11.5 mph - N/A   Overcast
6:52 AM 73.0 °F - 70.0 °F 90% 29.66 in 10.0 mi South 12.7 mph - N/A   Overcast
7:52 AM 73.9 °F - 70.0 °F 87% 29.66 in 10.0 mi South 15.0 mph 25.3 mph N/A   Mostly Cloudy
8:52 AM 77.0 °F - 71.1 °F 82% 29.69 in 10.0 mi SSW 15.0 mph 25.3 mph N/A   Mostly Cloudy
9:52 AM 80.1 °F 83.8 °F 72.0 °F 76% 29.69 in 10.0 mi SSW 16.1 mph 26.5 mph N/A   Partly Cloudy
10:52 AM 82.0 °F 86.7 °F 72.0 °F 71% 29.69 in 10.0 mi WSW 19.6 mph 26.5 mph N/A   Partly Cloudy
11:52 AM 82.9 °F 88.8 °F 73.0 °F 72% 29.70 in 10.0 mi SW 13.8 mph - N/A   Partly Cloudy
12:12 PM 82.4 °F 87.2 °F 71.6 °F 70% 29.73 in 10.0 mi WSW 16.1 mph 20.7 mph N/A   Mostly Cloudy
12:23 PM 82.4 °F 87.2 °F 71.6 °F 70% 29.73 in 10.0 mi SW 16.1 mph 21.9 mph N/A   Scattered Clouds
12:52 PM 84.9 °F 90.7 °F 72.0 °F 65% 29.69 in 10.0 mi SSW 12.7 mph - N/A   Scattered Clouds
1:52 PM 82.9 °F 88.0 °F 72.0 °F 69% 29.69 in 10.0 mi SSW 10.4 mph - N/A   Mostly Cloudy
2:52 PM 86.0 °F 93.0 °F 73.0 °F 65% 29.68 in 10.0 mi SW 11.5 mph - N/A   Partly Cloudy
3:52 PM 82.0 °F 86.3 °F 71.1 °F 69% 29.65 in 10.0 mi South 10.4 mph - N/A   Overcast
4:11 PM 78.8 °F - 64.4 °F 61% 29.68 in 10.0 mi SSE 13.8 mph 27.6 mph N/A Thunderstorm Mostly Cloudy
4:21 PM 73.4 °F - 62.6 °F 69% 29.69 in 10.0 mi SSE 12.7 mph 24.2 mph N/A Thunderstorm Mostly Cloudy
4:42 PM 69.8 °F - 64.4 °F 83% 29.73 in 1.5 mi SSE 23.0 mph 34.5 mph 0.19 in Rain , Thunderstorm Heavy Thunderstorms and Rain
4:44 PM 69.8 °F - 66.2 °F 88% 29.71 in 0.8 mi South 20.7 mph 34.5 mph 0.29 in Rain , Thunderstorm Heavy Thunderstorms and Rain
4:49 PM 71.6 °F - 64.4 °F 78% 29.69 in 0.8 mi SSE 12.7 mph 34.5 mph 0.31 in Rain , Thunderstorm Heavy Thunderstorms and Rain
4:52 PM 73.0 °F - 69.1 °F 87% 29.67 in 1.0 mi South 11.5 mph 32.2 mph 0.31 in Rain , Thunderstorm Light Thunderstorms and Rain
4:54 PM 73.4 °F - 71.6 °F 94% 29.71 in 2.0 mi South 12.7 mph 18.4 mph 0.00 in Rain , Thunderstorm Light Thunderstorms and Rain
4:56 PM 75.2 °F - 71.6 °F 89% 29.71 in 5.0 mi South 16.1 mph - 0.00 in Rain , Thunderstorm Light Thunderstorms and Rain
5:06 PM 75.2 °F - 69.8 °F 83% 29.70 in 10.0 mi South 10.4 mph 26.5 mph 0.00 in Thunderstorm Scattered Clouds
5:52 PM 73.9 °F - 69.1 °F 85% 29.65 in 10.0 mi South 8.1 mph 20.7 mph 0.00 in Thunderstorm Clear
6:14 PM 71.6 °F - 68.0 °F 88% 29.65 in 9.0 mi East 11.5 mph - 0.02 in Rain , Thunderstorm Light Rain
6:49 PM 69.8 °F - 66.2 °F 88% 29.69 in 3.0 mi NNE 8.1 mph - 0.08 in Rain Heavy Rain
6:52 PM 70.0 °F - 66.9 °F 90% 29.68 in 3.0 mi North 5.8 mph - 0.08 in Rain , Thunderstorm Rain
7:01 PM 69.8 °F - 68.0 °F 94% 29.72 in 1.5 mi Variable 3.5 mph - 0.11 in Rain , Thunderstorm Thunderstorms and Rain
7:03 PM 69.8 °F - 68.0 °F 94% 29.72 in 1.0 mi NNE 6.9 mph - 0.17 in Rain , Thunderstorm Heavy Thunderstorms and Rain
7:12 PM 69.8 °F - 66.2 °F 88% 29.71 in 0.8 mi Variable 3.5 mph - 0.33 in Rain , Thunderstorm Heavy Thunderstorms and Rain
7:19 PM 69.8 °F - 66.2 °F 88% 29.70 in 1.2 mi Variable 3.5 mph - 0.38 in Rain , Thunderstorm Heavy Rain
7:23 PM 69.8 °F - 66.2 °F 88% 29.70 in 2.0 mi ESE 6.9 mph - 0.40 in Rain , Thunderstorm Heavy Thunderstorms and Rain
7:31 PM 69.8 °F - 68.0 °F 94% 29.74 in 5.0 mi Calm Calm - 0.41 in Rain , Thunderstorm Light Thunderstorms and Rain
7:52 PM 70.0 °F - 68.0 °F 93% 29.72 in 10.0 mi North 10.4 mph - 0.42 in Rain , Thunderstorm Light Rain
8:00 PM 69.8 °F - 68.0 °F 94% 29.75 in 10.0 mi North 8.1 mph - 0.01 in Rain , Thunderstorm Light Rain
8:08 PM 69.8 °F - 66.2 °F 88% 29.72 in 10.0 mi North 4.6 mph - 0.01 in Rain Light Rain
8:31 PM 69.8 °F - 66.2 °F 88% 29.76 in 10.0 mi SE 11.5 mph - 0.01 in Thunderstorm Overcast
8:52 PM 69.1 °F - 66.0 °F 90% 29.76 in 10.0 mi SSE 12.7 mph - 0.01 in Thunderstorm Thunderstorm
9:41 PM 66.2 °F - 62.6 °F 88% 29.78 in 10.0 mi ESE 10.4 mph - 0.06 in   Overcast
9:52 PM 66.9 °F - 63.0 °F 87% 29.74 in 10.0 mi SE 8.1 mph - 0.06 in   Mostly Cloudy
10:52 PM 66.9 °F - 64.9 °F 93% 29.75 in 10.0 mi SE 8.1 mph - N/A   Scattered Clouds
11:52 PM 66.0 °F - 64.9 °F 96% 29.74 in 10.0 mi ESE 4.6 mph - N/A   Clear